SL-3 R/B (19046 NORAD) Tracking and Keplerian Element Data

This shows tracking and keplerian element data for the satellite.

Feedback or suggestion? Click here.




ElementValue
Catalog19046
NameSL-3 R/B
Epoch Orbit93304
Epoch Day12.900142
Epoch Year2024
RAAN359.3322
Inclination97.4351
Eccentricity0.0035112
Argument of Perigee76.0181
Mean Anonmoly284.4948
Mean Motion15.08064535
Decay Rate6.256E-05
L11 19046U 88032B 24012.90014200 .00006256 00000+0 40414-3 0 9990
L22 19046 97.4351 359.3322 0035112 76.0181 284.4948 15.08064535933048



Live tracking and technical data element details for SL-3 R/B (NORAD 19046). SL-3 R/B can be tracked NOW for your location showing map with azimuth and elevation plus other details from your city location.







IsCatalogInMostPopularTable: catalog: 19046, numindb: 457
Update: records affected: 1



GetName: 19046 SL-3 R/B

Hit Count: updated at: Sun, 14 Apr 2024 23:22:26 GMT